Location: Ariel
(45.9570°N, 122.5700°W)
Time: 03:41:33
(UTC-07:00)

Tiros 1 - Pass Details

Date: 22 July 2019
Orbit: 630 x 664 km, 48.4° (Epoch: 19 August)

Event Time Altitude Azimuth Distance (km) Brightness Sun altitude
Rises 14:08:20 0° 253° (WSW) 2,986 10.8 62.2°
Reaches altitude 10° 14:10:40 10° 253° (WSW) 2,078 10.2 62.0°
Maximum altitude 14:15:30 86° 343° (NNW) 670 8.5 61.6°
Drops below altitude 10° 14:20:20 10° 73° (ENE) 2,084 9.7 61.1°
Sets 14:22:41 0° 73° (ENE) 2,995 10.3 60.9°
